Back to catalog

STARLINK-36509

AliveCommunicationsVLEO
NORAD 67408·PAYLOAD·🇺🇸 United States

Launched Jan 12, 2026 from Cape Canaveral Space Force Station

Loading…

Next Passes (next 24 hours)

TLE

FreshSource: CelesTrak SupGP

Epoch: Sep 15, 2026, 03:19 UTC

1 67408C 26005E   26258.13868056 -.00021294  00000+0 -77143-3 0  2580
2 67408  43.0010 247.9254 0001224 265.7353  35.8775 15.27581757    12

Track STARLINK-36509 in real time with AllMySat

Download on the App Store